North Adams, MA

7:04 PM EST on January 22, 2017 (GMT -0500)
Harriman And West

Weather History for KAQW - October, 2012

Change the Weather History Date:

Friday, October 12, 2012

  Actual Average Record
Temperature  
Mean Temperature 40 °F -  
Max Temperature 48 °F 58 °F 77 °F (2015)
Min Temperature 28 °F 38 °F 28 °F (1996)
Degree Days  
Heating Degree Days 25    
Moisture  
Dew Point 32 °F    
Average Humidity 72    
Maximum Humidity 92    
Minimum Humidity 38    
Precipitation  
Precipitation 0.07 in - - ()
Sea Level Pressure  
Sea Level Pressure 30.15 in    
Wind  
Wind Speed 4 mph (West)    
Max Wind Speed 10 mph    
Max Gust Speed 20 mph    
Visibility 10 miles    
Events Rain    
Averages and records for this station are not official NWS values.
T = Trace of Precipitation, MM = Missing Value Source: NWS Daily Summary

Daily Weather History Graph

Daily Weather History Graph

Search for Another Location

Airport or City:

Trip Planner

Search our weather history database for the weather conditions in past years. The results will help you decide how hot, cold, wet, or windy it might be!

Date:

Astronomy

Oct. 12, 2012 Rise Set
Actual Time 7:02 AM EDT 6:14 PM EDT
Civil Twilight 6:34 AM EDT 6:42 PM EDT
Nautical Twilight 6:01 AM EDT 7:15 PM EDT
Astronomical Twilight 5:29 AM EDT 7:48 PM EDT
Moon 3:39 AM EDT (10/12) 4:25 PM EDT (10/12)
Length of Visible Light 12h 08m
Length of Day
11h 11m
Waning Crescent, 11% of the Moon is Illuminated
Oct 12
Waning Crescent
Oct 15
New
Oct 21
First Quarter
Oct 29
Full
Nov 6
Last Quarter

Hourly Weather History & Observations

Time (EDT) Temp. Windchill Dew Point Humidity Pressure Visibility Wind Dir Wind Speed Gust Speed Precip Events Conditions
12:52 AM 36.0 °F - 32.0 °F 86% 30.08 in 10.0 mi Calm Calm - N/A   Clear
1:52 AM 33.1 °F - 30.9 °F 92% 30.09 in 9.0 mi Calm Calm - N/A   Clear
3:52 AM 32.0 °F - 28.9 °F 88% 30.03 in 10.0 mi Calm Calm - N/A   Clear
4:52 AM 35.1 °F 31.0 °F 33.1 °F 92% 30.02 in 10.0 mi Variable 4.6 mph - N/A   Partly Cloudy
6:52 AM 46.9 °F - 35.1 °F 63% 30.04 in 10.0 mi West 10.4 mph 18.4 mph 0.00 in Rain Light Rain
7:50 AM 44.6 °F 39.7 °F 39.2 °F 81% 30.05 in 7.0 mi West 9.2 mph - 0.03 in Rain Light Rain
7:52 AM 44.1 °F 39.0 °F 39.9 °F 85% 30.07 in 7.0 mi West 9.2 mph - 0.03 in Rain Light Rain
8:52 AM 42.1 °F 36.6 °F 37.0 °F 82% 30.10 in 9.0 mi WSW 9.2 mph - 0.02 in Rain Light Rain
9:52 AM 41.0 °F - 37.0 °F 86% 30.12 in 7.0 mi Calm Calm - 0.01 in Rain Light Rain
10:09 AM 42.8 °F 41.1 °F 37.4 °F 81% 30.10 in 10.0 mi WSW 3.5 mph - 0.01 in   Overcast
10:26 AM 42.8 °F 40.1 °F 37.4 °F 81% 30.11 in 10.0 mi West 4.6 mph - 0.01 in   Overcast
10:52 AM 43.0 °F 41.3 °F 37.9 °F 82% 30.13 in 10.0 mi Variable 3.5 mph - 0.01 in   Overcast
11:06 AM 44.6 °F - 39.2 °F 81% 30.11 in 10.0 mi Calm Calm - N/A   Overcast
11:44 AM 44.6 °F 43.1 °F 37.4 °F 76% 30.12 in 10.0 mi Variable 3.5 mph - N/A   Overcast
11:52 AM 45.0 °F 41.8 °F 36.0 °F 71% 30.14 in 10.0 mi Variable 5.8 mph - N/A   Overcast
1:52 PM 48.9 °F - 27.0 °F 43% 30.15 in 10.0 mi NW 8.1 mph 17.3 mph N/A   Mostly Cloudy
3:52 PM 46.9 °F - 24.1 °F 41% 30.20 in 10.0 mi Variable 4.6 mph 18.4 mph N/A   Mostly Cloudy
4:52 PM 45.0 °F 40.6 °F 23.0 °F 42% 30.22 in 10.0 mi West 8.1 mph - N/A   Mostly Cloudy
5:52 PM 44.1 °F 40.1 °F 19.9 °F 38% 30.25 in 10.0 mi West 6.9 mph 19.6 mph N/A   Scattered Clouds
7:52 PM 39.0 °F 35.7 °F 19.9 °F 46% 30.33 in 10.0 mi WSW 4.6 mph - N/A   Partly Cloudy
8:52 PM 37.0 °F - 19.9 °F 50% 30.35 in 10.0 mi Calm Calm - N/A   Clear
11:52 PM 28.0 °F - 25.0 °F 88% 30.42 in 10.0 mi Calm Calm - N/A   Clear